Joplin, MO

12:39 PM CST on November 18, 2019 (GMT -0600)
Joplin Regional

Weather History for KJLN - September, 2019

Change the Weather History Date:

Thursday, September 19, 2019

  Actual Average Record
Temperature  
Mean Temperature 82 °F 69 °F  
Max Temperature 91 °F 81 °F 98 °F (1954)
Min Temperature 71 °F 58 °F 38 °F (1991)
Degree Days  
Heating Degree Days 0 2  
Month to date heating degree days 0 9  
Since 1 July heating degree days 0 10  
Cooling Degree Days 16 6  
Month to date cooling degree days 287 165  
Year to date cooling degree days 1538 1592  
Growing Degree Days 32 (Base 50)    
Moisture  
Dew Point 67 °F    
Average Humidity 65    
Maximum Humidity 84    
Minimum Humidity 47    
Precipitation  
Precipitation 0.00 in 0.17 in 1.39 in (1974)
Month to date precipitation 0.72 3.16  
Year to date precipitation 49.61 34.13  
Sea Level Pressure  
Sea Level Pressure 29.97 in    
Wind  
Wind Speed 6 mph ()    
Max Wind Speed 16 mph    
Max Gust Speed 24 mph    
Visibility 9.8 miles    
Events      
T = Trace of Precipitation, MM = Missing Value Source: Averaged Metar Reports

Daily Weather History Graph

Daily Weather History Graph

Search for Another Location

Airport or City:

Astronomy

Sep. 19, 2019 Rise Set
Actual Time 7:03 AM CDT 7:19 PM CDT
Civil Twilight 6:37 AM CDT 7:45 PM CDT
Nautical Twilight 6:06 AM CDT 8:16 PM CDT
Astronomical Twilight 5:35 AM CDT 8:47 PM CDT
Moon 10:36 PM CDT (9/19) 12:00 PM CDT (9/19)
Length of Visible Light 13h 08m
Length of Day
12h 16m
Waning Gibbous, 74% of the Moon is Illuminated
Sep 19
Waning Gibbous
Sep 21
Last Quarter
Sep 28
New
Oct 5
First Quarter
Oct 13
Full

Hourly Weather History & Observations

Time (CDT) Temp. Heat Index Dew Point Humidity Pressure Visibility Wind Dir Wind Speed Gust Speed Precip Events Conditions
12:53 AM 73.9 °F - 68.0 °F 82% 29.95 in 10.0 mi SE 3.5 mph - N/A   Clear
1:53 AM 75.0 °F - 66.0 °F 73% 29.96 in 10.0 mi SE 6.9 mph - N/A   Clear
2:53 AM 75.9 °F - 66.0 °F 71% 29.95 in 10.0 mi SE 5.8 mph - N/A   Clear
3:53 AM 73.9 °F - 66.0 °F 76% 29.95 in 10.0 mi SE 6.9 mph - N/A   Clear
4:53 AM 73.0 °F - 66.0 °F 79% 29.96 in 10.0 mi SSE 5.8 mph - N/A   Clear
5:53 AM 73.0 °F - 64.9 °F 76% 29.96 in 10.0 mi SE 4.6 mph - N/A   Clear
6:53 AM 72.0 °F - 64.9 °F 78% 29.97 in 10.0 mi SE 3.5 mph - N/A   Clear
7:53 AM 72.0 °F - 66.0 °F 81% 29.98 in 9.0 mi ESE 3.5 mph - N/A   Clear
8:53 AM 78.1 °F - 66.0 °F 66% 29.99 in 9.0 mi SE 6.9 mph - N/A   Clear
9:53 AM 82.0 °F 84.5 °F 66.9 °F 60% 30.01 in 10.0 mi SE 6.9 mph - N/A   Clear
10:53 AM 84.9 °F 88.2 °F 68.0 °F 57% 30.01 in 10.0 mi SSE 6.9 mph - N/A   Clear
11:53 AM 88.0 °F 92.1 °F 69.1 °F 53% 30.01 in 10.0 mi South 4.6 mph - N/A   Clear
12:53 PM 91.0 °F 95.2 °F 68.0 °F 47% 29.99 in 10.0 mi SSE 6.9 mph - N/A   Clear
1:53 PM 91.0 °F 95.2 °F 68.0 °F 47% 29.98 in 10.0 mi SSE 10.4 mph - N/A   Clear
2:53 PM 91.9 °F 96.9 °F 69.1 °F 47% 29.96 in 10.0 mi SSE 11.5 mph - N/A   Partly Cloudy
3:53 PM 90.0 °F 93.6 °F 68.0 °F 48% 29.94 in 10.0 mi SSE 11.5 mph - N/A   Partly Cloudy
4:53 PM 91.0 °F 95.6 °F 69.1 °F 48% 29.94 in 8.0 mi SE 15.0 mph 24.2 mph N/A   Scattered Clouds
5:53 PM 87.1 °F 89.9 °F 66.9 °F 51% 29.94 in 10.0 mi East 3.5 mph - N/A   Clear
6:53 PM 82.9 °F 85.4 °F 66.9 °F 58% 29.94 in 8.0 mi SSE 5.8 mph - N/A   Clear
7:53 PM 82.0 °F 84.9 °F 68.0 °F 62% 29.94 in 10.0 mi SE 6.9 mph - N/A   Clear
8:53 PM 79.0 °F - 68.0 °F 69% 29.96 in 10.0 mi SSE 6.9 mph - N/A   Clear
9:53 PM 78.1 °F - 68.0 °F 71% 29.96 in 10.0 mi SE 5.8 mph - N/A   Clear
10:53 PM 77.0 °F - 68.0 °F 74% 29.98 in 10.0 mi SE 8.1 mph - N/A   Clear
11:53 PM 73.9 °F - 66.9 °F 79% 29.98 in 10.0 mi SSE 6.9 mph - N/A   Clear